Wind_Speed
56 55 56 56 56 57 57 58 60 61 61 62 61 58 56 54 51 48 47 46 46 45 42 42 42 41 42 44 45 46 44 42 42 42 42 39 37 37 36 34 33 35 38 41 43 42 39 37 39 41 42 43 44 45 44 42 41 38 36 34 34 36 36 34 33 32 31 31 31 30 29 30 28 26 25 24 23 24 24 24 24 24 24 24 24
56 56 57 57 58 59 60 61 62 63 64 64 62 58 55 53 51 49 49 48 47 46 44 43 43 44 46 47 47 46 44 43 45 45 43 39 38 39 37 35 33 34 38 41 43 42 39 37 39 40 41 43 45 45 45 43 41 38 36 34 33 34 36 35 35 34 33 32 31 30 30 32 31 28 26 25 25 25 24 24 24 24 24 24 25
57 57 58 58 59 60 61 62 63 63 62 60 57 54 51 51 50 50 50 48 47 46 45 45 46 47 48 47 45 45 44 46 47 44 41 39 38 39 38 35 33 33 37 41 41 40 38 37 38 39 41 43 45 46 46 44 42 39 37 34 33 33 36 36 36 35 34 33 31 30 30 32 33 30 27 25 26 26 26 25 24 23 24 24 25
56 56 57 58 58 59 59 60 59 57 56 54 51 49 48 50 51 51 50 48 46 46 46 46 47 48 48 47 45 44 46 48 46 43 40 39 39 40 38 36 33 33 37 40 40 37 36 35 37 38 40 42 44 46 46 45 43 41 38 36 34 34 36 37 37 36 35 33 31 30 30 31 32 32 29 28 28 28 28 27 25 24 25 25 25
54 54 55 56 56 56 55 55 55 54 53 52 50 48 48 49 51 52 50 48 46 46 48 49 49 49 49 49 47 47 48 47 43 40 40 41 42 41 40 38 35 34 37 39 38 36 34 35 37 39 39 41 43 45 46 45 43 41 39 36 34 34 36 37 37 36 35 34 32 31 31 31 33 33 31 31 30 30 29 28 27 26 26 25 25
50 51 52 52 52 51 51 52 52 52 52 51 50 50 50 51 52 53 51 49 48 48 50 51 50 49 49 50 50 49 48 43 39 39 41 43 44 43 42 40 37 35 36 38 37 35 34 35 38 40 41 41 43 45 45 44 42 41 39 37 35 36 38 38 38 37 36 34 32 32 33 33 33 32 32 32 32 31 30 30 30 29 27 26 25
45 46 46 46 46 46 46 47 48 49 49 49 49 50 51 52 52 53 51 50 49 49 51 53 52 50 50 50 49 47 43 40 40 42 44 44 45 45 44 42 37 35 35 36 36 35 34 36 38 41 42 43 45 46 45 44 42 40 39 37 36 37 39 38 37 38 37 35 34 34 34 34 33 32 33 33 33 32 31 31 31 31 30 29 28
40 40 40 40 41 41 41 42 43 44 44 45 46 48 49 50 50 49 48 47 48 49 50 51 51 50 49 46 44 41 40 41 43 44 45 45 46 46 44 41 37 35 35 35 35 35 35 37 39 40 42 44 45 44 42 40 38 36 37 37 36 37 38 37 37 38 37 35 35 35 34 34 34 34 34 33 32 31 30 30 30 31 31 31 31
35 36 36 37 38 38 39 40 40 40 41 41 42 44 45 46 46 46 45 45 47 51 51 51 50 48 45 41 41 42 42 44 45 45 47 46 46 44 42 41 38 36 35 35 35 35 35 37 39 39 40 43 44 43 41 38 36 34 36 37 36 36 39 38 37 38 38 36 35 35 36 36 36 35 34 32 32 31 31 32 33 33 34 33 33
32 32 32 33 34 35 37 38 39 39 39 40 41 42 43 45 46 47 46 46 48 52 53 53 50 46 43 42 44 45 45 47 47 47 48 47 45 43 41 41 38 36 36 36 35 35 35 37 39 39 39 41 44 45 45 44 41 37 37 39 38 37 40 40 37 37 37 36 35 34 35 36 35 34 34 33 34 35 35 36 37 37 38 37 36
30 30 30 31 33 34 34 36 39 41 41 41 42 43 45 47 48 48 48 47 48 52 53 52 49 46 45 46 47 47 48 49 49 50 50 48 45 43 42 41 37 36 37 37 34 34 35 36 38 39 38 40 44 47 48 48 46 43 41 41 41 39 40 41 39 36 36 37 36 34 34 34 34 34 34 35 36 37 38 38 38 38 39 39 39
30 30 28 29 31 33 34 35 37 41 43 44 45 46 47 49 51 51 51 49 49 51 52 52 51 49 48 49 50 50 51 52 53 53 51 47 46 43 42 39 36 36 38 37 34 34 35 36 37 38 39 41 44 47 48 47 47 45 44 43 42 41 40 41 39 34 33 34 33 32 32 31 32 33 34 36 38 39 39 39 38 37 37 37 39
30 30 28 27 28 31 33 34 35 37 40 44 47 48 49 51 53 54 55 55 55 55 56 55 54 53 51 51 53 54 53 54 54 55 51 47 46 44 40 37 36 37 38 36 34 33 33 35 37 37 39 42 44 47 47 47 47 46 44 43 42 41 40 41 38 34 31 30 29 27 26 25 26 29 32 36 37 38 38 38 37 37 36 35 36
29 29 29 28 28 29 29 30 31 32 34 38 44 48 50 52 54 55 57 58 59 59 59 57 55 53 51 50 52 54 54 53 53 53 50 46 45 41 37 36 36 37 37 36 34 33 33 34 35 37 39 42 44 46 47 47 47 45 44 43 43 41 40 42 41 38 34 30 27 25 22 21 21 23 26 30 32 33 34 35 36 36 36 36 36
29 29 30 30 30 29 29 28 28 28 28 30 35 40 45 48 51 54 56 58 59 59 58 56 50 46 46 47 50 50 50 50 49 48 47 44 42 39 37 36 37 37 37 35 33 33 33 34 36 38 40 42 44 47 48 48 47 46 44 44 43 41 39 41 41 39 35 31 28 25 24 22 20 20 21 24 28 29 30 31 33 35 36 37 37
29 29 30 30 30 30 28 27 26 26 25 26 28 31 35 38 41 44 46 48 50 51 50 48 43 39 41 44 46 45 44 45 44 44 43 41 38 37 37 37 37 38 37 35 33 32 32 34 36 38 41 43 45 46 48 49 48 46 45 44 44 42 39 40 40 37 35 33 31 28 26 24 22 21 21 21 24 27 28 29 30 32 34 36 37
30 29 29 29 30 29 28 27 26 25 25 25 26 27 29 30 32 33 35 36 36 38 38 38 37 38 40 41 42 40 40 41 41 41 41 39 37 36 37 37 38 40 39 37 35 32 31 32 34 37 39 42 45 46 48 50 49 47 46 45 44 43 41 40 40 39 38 36 34 31 28 27 26 24 22 21 22 24 26 28 29 30 31 33 35
30 29 29 29 29 29 28 28 27 26 26 26 26 26 27 27 28 28 29 29 29 30 31 31 31 33 35 36 37 37 38 38 38 39 39 39 39 38 37 36 38 41 40 38 36 34 32 32 33 36 38 40 42 44 46 49 48 47 47 45 45 44 42 42 41 40 40 38 36 34 31 31 31 28 25 24 23 24 25 26 27 28 30 32 33
29 29 29 29 30 29 29 29 28 27 26 26 26 26 26 27 26 26 27 27 27 27 28 29 29 29 30 32 33 35 37 37 35 36 37 38 40 39 38 36 38 41 42 39 36 35 34 34 34 35 37 38 39 41 45 48 48 47 46 44 44 45 44 44 43 42 41 40 37 35 34 35 35 31 28 26 25 25 25 26 26 26 27 29 31
29 29 29 29 30 30 29 29 29 28 27 27 27 27 27 27 26 26 26 26 26 26 26 27 28 30 31 32 34 36 38 39 38 36 35 36 39 39 39 38 38 41 42 40 36 35 36 35 34 34 35 37 38 38 41 46 48 47 46 44 45 47 47 46 45 43 43 42 38 37 37 39 39 36 32 29 28 27 28 29 28 27 27 27 28
29 28 28 28 28 29 30 30 29 28 28 28 27 27 27 27 27 26 26 25 25 25 26 26 27 29 31 32 34 36 38 41 41 40 38 37 38 39 39 39 39 40 42 42 38 36 36 34 32 33 34 35 36 36 38 42 47 49 46 44 46 48 48 48 45 43 44 44 40 39 40 41 42 40 36 33 31 31 33 35 33 32 30 28 26
27 27 26 27 28 28 30 30 30 29 29 29 28 28 27 27 27 27 26 26 25 25 25 26 26 27 29 31 33 35 37 39 42 44 43 40 40 41 40 40 40 40 42 43 42 40 38 35 32 32 33 34 35 36 37 39 45 48 48 46 47 49 50 48 46 44 46 45 42 41 43 41 41 41 38 36 35 35 37 38 37 36 33 29 26
28 27 28 28 29 30 31 32 32 32 31 30 29 28 28 28 28 28 27 26 26 25 26 26 27 27 28 29 31 33 36 37 39 43 46 45 43 43 42 41 41 42 42 44 46 44 41 38 36 33 32 33 34 36 37 38 41 46 49 49 48 49 51 50 49 49 49 49 46 46 45 41 40 40 39 40 40 39 39 39 39 38 34 31 29
31 32 32 32 33 34 34 34 34 34 34 33 32 30 29 28 28 29 28 27 26 26 26 26 27 28 28 29 30 32 34 37 38 40 44 47 45 44 43 43 42 43 44 44 45 46 45 43 40 37 34 33 33 35 36 38 40 43 46 50 51 51 52 51 52 52 51 52 51 48 45 41 41 44 43 43 41 38 37 39 41 41 38 35 33
34 35 35 35 36 36 34 32 32 33 35 36 35 33 32 31 30 30 30 29 28 27 27 27 27 28 29 30 31 32 33 35 37 39 42 45 47 46 45 44 43 43 45 44 44 46 47 46 44 41 38 35 34 34 35 37 40 42 44 47 50 53 53 53 52 51 51 51 51 50 47 44 46 48 48 46 43 39 38 39 41 41 39 38 36
37 37 36 36 36 35 32 30 29 31 33 35 36 36 35 34 33 32 31 31 31 31 30 29 29 28 28 30 31 32 33 34 35 37 39 42 45 46 46 45 45 45 45 45 45 45 47 48 46 43 40 39 37 37 37 38 40 42 43 45 48 51 54 54 53 51 50 51 51 51 50 47 48 50 49 48 46 44 43 43 42 40 39 39 38
39 39 37 37 36 33 31 30 30 31 32 34 36 37 37 37 36 35 34 33 33 33 33 33 32 30 29 29 30 31 32 33 34 36 37 40 42 45 46 46 46 47 47 47 47 46 47 48 48 45 43 41 41 41 41 41 40 41 43 45 47 50 53 54 54 53 52 52 52 52 51 49 49 49 49 49 48 46 46 46 44 43 42 42 41
39 38 37 37 36 34 33 34 35 36 36 36 36 37 37 38 38 38 37 36 35 35 36 35 35 34 33 31 31 31 31 32 33 34 36 38 40 42 45 46 47 47 48 48 48 48 48 48 49 48 46 45 45 46 45 42 41 42 43 44 46 48 51 52 52 53 53 54 53 52 52 52 52 52 51 51 50 48 48 48 47 46 45 44 43
36 36 36 37 36 36 36 37 38 39 41 41 40 39 39 39 39 39 39 39 38 37 37 37 37 36 36 35 34 33 32 32 32 33 34 36 37 39 41 44 46 48 49 49 49 49 49 50 50 51 51 49 48 49 47 44 43 44 44 45 46 47 49 50 51 51 53 53 53 52 52 54 54 54 53 53 52 51 51 51 50 48 47 45 44
36 36 37 38 38 38 38 38 39 42 44 45 45 44 42 41 40 40 41 41 40 40 40 39 39 39 38 37 37 37 36 35 33 33 33 34 35 37 39 40 43 46 49 51 51 50 50 50 51 52 52 52 51 50 48 46 45 46 46 46 47 47 48 50 51 52 53 54 54 53 53 54 54 54 54 55 54 53 53 54 54 52 49 47 46
41 41 41 42 42 42 42 43 46 48 49 49 48 47 47 45 43 42 42 42 42 42 42 42 41 41 41 40 39 39 39 39 38 36 34 34 34 35 37 38 40 42 46 50 53 54 52 51 51 52 53 54 53 51 50 48 47 47 48 49 49 49 49 49 51 52 54 55 56 56 56 55 55 55 56 56 56 56 56 56 56 55 53 50 48
45 45 46 48 49 49 50 52 55 56 55 53 51 49 49 48 47 45 43 43 43 43 44 44 44 44 43 43 42 42 41 42 42 41 39 37 36 36 36 37 38 40 42 46 50 54 56 55 54 53 54 55 55 54 52 51 49 48 49 51 52 52 52 51 51 52 53 55 56 57 57 57 57 57 57 57 57 58 58 57 58 57 56 54 52
49 49 50 52 55 56 57 59 61 61 60 57 54 51 50 50 50 48 47 46 45 44 45 46 46 46 46 46 45 45 44 44 44 44 43 42 41 39 38 38 38 39 40 42 45 49 54 58 58 57 56 56 57 57 56 55 53 52 51 52 54 55 55 55 55 55 54 55 56 57 58 58 58 58 58 59 59 59 58 58 58 58 58 58 56
55 56 57 58 59 60 61 62 63 63 62 59 56 53 51 50 51 51 50 49 48 47 47 47 48 49 48 48 48 47 47 47 47 47 46 46 45 44 43 42 41 40 41 41 43 45 48 52 57 59 60 59 59 59 58 57 57 55 54 53 55 57 58 58 58 59 59 58 58 59 59 59 59 59 59 60 61 61 60 59 59 59 59 60 60
60 62 64 65 65 65 64 65 64 62 60 58 55 53 51 50 51 52 51 50 50 50 50 50 50 50 51 50 49 49 49 49 49 50 49 49 48 48 47 47 46 45 44 43 43 44 45 47 50 54 57 60 61 62 61 59 59 59 57 56 57 58 60 61 61 62 63 63 63 62 62 62 62 62 62 62 63 63 63 62 61 60 60 61 62
63 65 66 66 65 65 64 63 61 59 57 56 55 54 53 52 52 52 52 52 52 52 53 53 52 52 52 51 50 50 50 51 51 52 52 52 52 51 51 51 50 50 49 47 46 45 45 46 48 50 52 55 58 61 63 63 62 61 61 60 60 60 61 63 64 65 65 66 66 65 65 64 64 64 63 63 64 64 65 64 63 61 61 61 62
63 64 64 63 62 61 60 59 58 57 56 55 55 55 55 54 54 54 54 55 55 55 55 55 55 55 55 54 53 52 52 53 53 54 54 54 55 54 54 54 54 54 53 52 51 50 49 48 48 49 50 52 54 57 60 63 64 65 65 64 64 64 64 64 65 66 67 68 68 67 67 66 65 65 64 64 64 64 64 65 64 63 62 61 62
60 61 62 61 60 58 57 56 56 56 56 55 55 56 56 55 55 55 56 57 57 56 56 56 57 57 57 57 57 57 55 55 56 56 56 56 56 56 57 57 57 57 57 56 56 55 54 53 51 51 51 52 53 55 57 59 62 64 66 67 67 68 68 68 68 68 69 69 69 69 68 68 67 67 66 65 65 65 65 65 65 65 64 63 63
55 57 58 59 59 59 57 56 57 57 56 56 57 56 56 55 54 55 55 55 55 55 55 56 56 57 58 59 59 59 58 57 57 58 58 58 58 58 59 59 60 60 59 59 59 59 59 58 57 56 55 55 55 56 56 58 59 61 64 66 68 69 70 71 71 71 72 71 71 71 71 70 70 70 69 69 68 68 68 68 68 68 67 67 66
48 49 52 54 54 53 50 50 54 57 57 55 53 51 50 50 49 49 50 50 50 52 53 55 56 57 58 58 58 58 59 59 58 59 59 59 59 60 60 61 61 62 62 62 62 62 62 62 62 61 61 60 59 59 58 59 60 61 62 64 66 67 69 71 72 73 74 74 74 74 74 73 73 73 73 72 72 71 71 70 70 70 70 70 70
48 47 47 48 48 47 45 47 53 58 56 51 47 43 41 42 43 45 47 47 48 49 51 54 56 57 59 60 60 60 60 60 60 60 61 62 62 62 62 62 63 64 64 64 64 65 65 65 65 65 65 64 64 63 63 62 62 63 63 64 65 67 68 69 71 72 73 75 75 76 77 76 76 76 76 75 75 75 74 74 73 73 73 74 74
50 48 47 47 48 48 49 50 54 57 56 53 49 46 43 41 43 46 49 50 49 49 51 53 55 56 58 60 62 62 63 64 63 63 63 64 64 64 65 65 66 66 66 67 67 67 67 68 68 68 68 67 67 67 67 67 67 66 66 66 66 67 68 69 70 71 72 73 74 76 78 78 78 79 79 79 79 78 78 77 77 77 77 77 77
51 50 49 50 51 51 51 52 55 57 57 57 55 53 51 49 49 50 52 53 53 53 54 55 55 56 57 58 60 61 63 65 66 67 67 67 67 67 68 69 69 68 68 68 69 69 70 71 71 71 71 71 71 71 71 71 71 70 70 69 69 69 69 70 71 71 71 71 72 75 77 77 78 79 81 81 81 81 80 80 81 81 81 80 80
52 52 53 52 52 52 52 54 57 58 60 61 60 58 57 56 56 57 58 58 58 58 58 59 60 59 58 58 59 60 61 62 64 66 68 69 70 71 72 73 73 72 71 71 72 73 74 74 74 74 74 74 75 74 74 73 74 74 73 73 72 72 72 73 73 74 74 72 72 73 76 77 76 77 80 82 82 82 82 83 84 84 84 84 84
53 54 55 54 54 54 55 57 59 60 60 61 61 61 61 61 62 63 63 63 61 60 60 61 63 64 63 62 61 61 61 62 63 65 66 67 69 71 73 74 75 75 74 74 75 76 76 76 76 77 78 78 78 78 77 76 76 76 76 76 76 75 76 76 76 77 77 75 73 73 76 78 77 76 78 80 81 81 83 84 85 86 86 86 86
58 57 58 58 58 57 57 59 61 62 63 64 65 66 67 67 67 67 67 66 65 64 63 63 65 66 67 68 67 66 65 64 65 66 66 66 67 68 70 72 74 74 74 75 76 76 77 78 78 80 81 82 81 81 81 79 78 78 78 78 78 78 78 79 79 80 81 80 77 75 76 80 80 77 77 79 79 79 81 82 84 85 87 87 87
64 64 64 65 66 65 64 64 65 66 68 70 71 72 71 71 70 69 68 67 67 67 66 66 67 68 69 71 72 72 71 70 69 69 68 68 67 67 68 70 72 72 73 73 74 75 77 78 80 82 83 84 84 84 83 83 82 81 81 81 81 81 81 81 82 83 84 84 83 80 79 82 83 80 78 81 81 80 80 81 82 84 85 86 87
72 72 71 71 71 71 71 71 72 73 74 74 73 73 72 72 71 70 70 69 69 69 70 70 70 71 71 72 73 75 75 75 75 74 73 72 71 70 70 71 71 72 72 72 73 74 76 77 79 82 83 84 84 84 85 85 85 84 84 83 83 83 83 83 84 86 87 87 87 85 84 85 86 84 82 83 84 83 83 82 82 83 84 84 85
77 79 78 78 78 78 78 78 78 77 76 75 74 73 73 73 73 72 72 72 72 72 73 73 74 74 75 75 76 77 78 78 79 79 79 78 77 76 75 74 74 74 73 73 74 75 77 78 80 81 81 82 83 84 85 86 86 87 86 85 85 85 84 84 85 87 88 89 90 90 88 87 88 88 86 87 87 87 87 86 85 84 84 85 85
77 79 80 82 82 82 82 80 78 76 75 75 74 74 74 74 75 75 75 75 76 76 76 77 77 77 77 78 78 79 80 80 81 82 82 82 82 82 81 80 79 78 77 77 77 78 79 80 80 80 80 81 83 85 86 86 87 87 87 86 86 86 85 84 84 85 87 89 91 92 90 89 90 90 90 90 91 91 91 90 89 88 88 88 87
73 75 76 77 78 78 77 76 75 75 75 75 75 75 75 76 76 77 77 78 78 79 79 79 79 79 79 79 79 80 80 81 82 83 84 84 85 85 85 84 83 83 82 81 80 80 80 81 81 81 81 82 84 86 87 87 87 88 87 87 87 87 86 85 85 85 86 88 91 92 91 90 91 91 92 93 94 94 95 94 93 92 91 91 91
Wind_Direction
278 277 277 278 278 278 277 275 274 273 274 274 275 274 272 271 270 266 261 261 265 270 271 264 258 254 249 250 256 261 263 267 273 277 278 275 271 268 270 283 283 274 272 271 271 269 264 258 251 245 239 236 233 232 232 232 230 230 232 237 238 236 232 229 228 230 236 243 250 251 247 245 245 247 249 250 250 251 252 254 255 256 256 257 258
278 279 279 279 279 279 278 276 274 273 272 273 273 272 270 268 266 262 260 261 265 269 270 263 256 254 253 254 259 262 263 269 277 279 277 273 272 271 273 284 285 275 271 270 272 271 267 259 249 242 238 234 232 231 232 231 231 230 230 234 238 240 237 232 228 229 233 239 245 249 249 247 247 249 251 249 246 248 252 256 258 259 260 260 259
280 280 281 281 280 279 278 275 274 273 272 271 270 268 266 263 259 258 258 262 267 268 267 262 258 257 256 255 258 262 266 275 280 278 274 272 273 273 274 283 284 276 272 270 272 272 268 258 246 241 237 234 233 232 231 231 230 229 228 230 236 241 239 234 231 230 231 234 240 246 248 247 247 247 247 245 244 247 252 255 256 257 258 259 258
282 282 282 281 279 278 276 274 273 272 271 269 267 264 262 259 257 256 258 263 267 265 263 261 258 257 255 254 258 264 273 279 278 275 272 272 274 273 273 282 284 277 272 270 272 271 266 256 244 239 236 234 234 233 232 232 231 228 227 229 234 239 238 235 234 232 231 233 240 247 248 247 246 245 246 248 247 247 251 253 255 257 256 256 256
283 282 280 278 277 275 273 272 272 271 269 267 265 262 259 256 255 255 258 262 263 260 259 257 254 253 253 255 258 265 276 280 275 271 270 270 273 272 272 280 283 275 271 269 270 269 263 252 242 236 233 232 233 233 233 234 232 229 227 230 234 236 234 232 233 232 231 234 242 248 247 245 245 246 248 250 249 247 250 254 256 257 256 254 255
282 279 277 275 274 273 272 271 270 269 267 265 262 259 257 255 253 254 258 260 258 256 257 254 251 251 253 257 260 268 277 276 268 265 265 267 270 270 271 280 281 272 268 266 267 266 258 249 240 233 229 228 229 231 232 233 231 228 229 232 235 234 230 229 231 230 230 235 242 246 245 243 244 246 247 248 248 248 250 253 255 256 255 253 254
279 277 275 274 273 272 271 270 268 267 266 264 261 259 257 256 255 255 257 258 255 255 255 253 252 253 257 263 267 272 272 264 260 260 262 265 268 269 273 280 278 268 264 263 264 263 254 245 238 233 230 226 225 227 228 229 228 227 230 234 237 234 229 229 231 229 230 235 239 242 243 242 241 242 243 246 247 247 249 252 254 254 253 252 253
279 278 277 275 273 271 270 270 269 267 265 263 262 262 261 260 259 258 257 256 253 253 254 253 254 257 261 265 267 266 260 257 258 259 262 265 268 271 275 279 276 265 260 261 262 260 252 244 236 231 230 229 226 225 226 227 229 232 235 237 238 235 231 231 233 230 231 235 237 239 240 239 239 240 242 244 245 246 248 250 252 253 253 252 252
280 280 280 278 276 273 272 272 271 268 265 263 260 259 261 263 263 261 260 256 250 249 251 252 255 258 261 262 260 258 256 258 260 260 264 266 269 272 275 279 275 264 260 260 261 257 250 243 236 230 229 230 227 222 219 222 230 239 240 239 239 236 232 233 235 233 233 235 237 238 238 237 238 240 241 242 244 247 250 252 254 254 254 253 252
284 284 284 281 278 277 276 275 274 272 268 265 260 255 254 257 261 261 260 257 251 247 248 250 253 257 261 260 258 258 257 258 260 263 265 267 269 272 276 279 273 263 261 261 258 253 247 242 237 231 228 229 227 220 215 216 223 228 233 237 238 236 233 233 236 236 236 235 237 240 239 238 239 239 242 245 249 252 255 257 258 258 257 255 253
289 288 286 282 280 281 280 277 275 273 270 266 263 259 254 252 253 256 256 255 251 247 247 249 253 259 262 260 258 258 258 258 260 263 266 268 270 273 278 278 268 261 262 261 257 249 244 240 236 232 228 227 224 220 219 220 221 220 222 229 234 236 232 230 233 235 235 235 238 241 240 239 241 244 248 252 255 258 259 260 260 260 258 257 255
290 290 289 285 281 281 281 279 274 270 267 263 260 260 259 253 250 251 253 252 250 247 248 252 257 262 264 261 258 257 258 259 261 263 266 268 270 275 278 273 263 261 261 261 256 247 243 240 235 231 226 224 222 221 223 225 226 225 223 223 228 233 231 228 230 233 235 236 237 240 241 244 248 254 257 259 261 262 263 263 262 262 260 258 256
289 289 290 287 283 280 279 278 275 271 265 260 257 257 256 254 251 251 252 253 253 252 254 258 263 267 266 261 258 257 257 259 260 262 265 267 271 276 273 265 261 261 261 260 254 245 242 239 235 231 226 224 223 224 226 227 229 230 229 226 227 230 229 226 225 228 231 234 237 241 245 251 258 262 261 261 260 260 261 261 262 262 263 261 258
285 287 287 287 285 283 282 281 279 276 271 264 258 256 255 254 255 255 255 256 257 258 261 264 266 267 265 258 256 258 258 258 259 261 264 268 271 272 266 260 260 260 260 259 253 244 240 239 237 234 230 228 228 228 229 230 230 231 232 231 229 228 229 226 223 224 226 230 235 239 242 251 262 266 262 257 254 254 254 255 257 258 259 261 260
282 283 285 286 286 286 287 288 287 284 280 273 266 261 259 258 258 258 258 258 259 261 262 263 263 263 261 254 254 258 259 260 261 262 266 268 269 266 261 258 258 258 257 254 250 244 239 237 237 236 235 234 233 232 231 232 233 232 232 233 232 230 229 227 226 228 229 230 230 230 234 246 262 272 271 263 254 252 253 253 254 253 253 254 255
282 282 285 288 290 292 294 296 296 293 288 283 276 270 266 263 262 261 260 260 260 260 260 260 257 254 255 253 252 257 260 260 261 263 265 265 262 260 257 257 257 257 256 251 246 242 239 237 237 237 237 237 237 235 233 233 234 233 232 233 233 233 231 229 228 229 232 233 229 227 232 243 258 271 278 274 263 257 257 257 254 251 250 250 250
284 285 287 290 292 295 297 300 300 298 294 289 283 278 274 270 268 265 264 263 262 262 261 259 255 250 252 253 251 253 256 257 259 259 259 258 256 255 252 253 256 257 256 251 244 240 238 239 240 239 239 239 240 238 236 235 234 233 232 232 233 235 234 231 229 232 235 234 229 228 233 242 252 262 270 275 271 264 260 260 257 253 250 249 249
285 286 288 290 291 294 297 299 301 300 297 294 290 286 282 278 274 271 269 267 266 266 264 261 258 254 255 254 251 249 246 249 254 254 254 253 252 252 250 250 254 255 253 249 244 239 238 239 241 240 239 239 241 241 239 237 236 235 233 233 234 236 236 233 233 237 236 230 228 229 235 242 247 253 262 268 271 269 264 260 257 254 250 249 249
282 282 284 286 287 289 292 295 298 299 299 297 294 290 287 283 280 276 274 271 269 268 267 264 260 256 254 250 248 245 240 239 245 250 252 252 252 251 249 248 251 252 249 244 243 242 240 240 241 240 240 239 241 243 240 237 237 236 235 235 236 236 236 235 237 240 236 229 229 230 234 240 243 246 255 261 265 268 266 261 256 252 250 249 250
276 278 281 283 284 284 287 290 292 295 298 298 296 292 289 286 284 281 278 276 274 272 270 267 263 259 256 251 246 244 240 237 239 244 248 251 252 252 249 247 248 250 248 243 244 246 244 242 241 240 241 240 239 242 242 239 236 237 236 237 237 235 235 236 238 239 235 230 230 230 233 237 238 239 243 249 255 258 259 260 259 255 253 250 250
273 277 280 283 285 285 286 287 287 290 293 295 296 294 292 289 286 284 281 279 276 275 272 270 267 263 260 256 251 247 244 241 239 241 244 248 251 252 250 247 247 249 248 244 244 247 247 245 242 239 240 241 239 239 241 240 237 237 237 238 237 235 234 236 237 236 232 228 227 230 235 238 236 234 234 236 242 248 251 254 258 257 254 252 252
273 276 279 282 286 288 289 288 286 287 289 290 292 294 292 288 285 283 280 278 275 273 272 271 269 266 263 260 257 253 250 247 244 241 242 244 249 252 251 249 248 248 248 246 245 246 246 245 243 240 239 241 241 239 239 239 238 238 238 238 237 235 235 236 236 235 233 230 229 233 237 236 234 234 235 235 236 240 244 248 253 255 252 251 254
275 276 279 281 284 288 290 289 287 287 287 286 286 288 288 285 281 279 277 276 275 273 272 271 269 267 264 262 260 257 254 252 249 245 242 242 246 249 250 249 248 248 248 248 248 248 247 244 242 242 242 242 244 243 241 239 239 239 239 240 238 235 236 237 237 236 234 233 234 237 237 235 234 235 238 239 239 242 246 249 252 253 251 252 255
279 279 280 280 281 285 287 286 285 285 285 284 282 282 282 281 279 276 274 272 272 272 271 272 272 271 268 264 261 260 258 255 253 249 244 244 244 245 247 248 247 246 247 248 249 250 249 247 244 243 245 245 246 247 245 242 240 240 241 241 240 238 237 238 240 239 238 239 240 243 244 242 238 235 235 238 241 244 248 251 252 252 251 252 253
281 280 281 280 280 281 283 283 284 284 284 282 280 279 278 279 279 277 273 270 268 267 268 269 271 272 271 267 262 260 259 257 255 252 248 246 244 243 244 246 245 244 244 246 248 249 250 249 247 245 245 244 245 248 250 249 245 243 242 242 242 241 239 239 242 242 242 242 245 247 248 246 244 241 238 240 240 239 241 246 249 250 250 250 249
278 279 280 281 279 278 278 281 286 288 286 283 280 278 277 277 277 277 275 271 267 265 265 265 266 268 269 269 267 262 260 259 258 256 252 248 246 244 243 244 245 244 244 244 246 247 248 249 248 247 246 244 245 250 254 254 251 247 244 243 243 242 241 240 242 243 243 243 244 246 246 245 246 247 245 245 245 242 241 245 249 252 253 253 251
277 277 277 279 278 276 274 280 287 290 289 286 281 278 277 276 276 275 274 273 270 267 266 266 266 266 267 268 268 266 263 260 259 258 257 253 250 246 244 244 244 245 244 244 244 246 247 247 247 247 247 246 248 255 259 256 252 251 248 245 244 243 243 242 242 244 244 245 245 246 246 244 244 247 248 248 249 246 244 246 250 253 254 255 255
277 276 276 277 277 275 275 279 285 288 288 286 282 279 276 275 275 274 273 271 271 270 268 268 267 267 268 269 268 267 265 263 261 259 258 257 255 251 248 245 243 243 243 244 244 245 247 247 247 246 247 248 250 257 261 259 254 253 250 247 246 245 244 243 243 243 244 245 246 246 247 246 245 246 247 248 249 248 245 246 249 250 252 254 255
278 276 274 274 275 275 276 279 283 286 286 284 281 279 277 275 273 272 271 270 269 269 269 268 268 268 268 270 270 270 267 264 262 260 259 258 258 255 253 250 246 243 242 242 243 245 246 248 248 248 248 249 251 255 259 259 257 256 253 248 247 246 245 244 242 241 243 245 246 246 247 247 247 246 247 247 248 248 247 247 249 250 251 254 254
279 278 276 275 275 275 275 277 280 285 287 284 280 276 275 275 274 271 270 269 268 267 267 266 267 267 267 267 269 270 270 268 265 262 261 259 258 257 255 253 251 247 244 242 242 244 246 248 249 249 249 249 250 252 254 255 254 255 255 252 249 247 246 245 244 243 243 244 245 247 247 248 248 248 247 247 248 249 250 249 250 251 252 254 254
276 277 277 276 275 273 272 274 279 283 286 285 280 274 271 272 273 272 269 268 267 266 265 265 265 265 265 265 265 266 268 269 267 265 263 261 259 257 255 254 252 250 248 245 243 243 244 246 248 248 248 248 248 249 252 253 252 251 251 252 252 251 249 247 246 245 244 244 245 247 248 249 250 249 249 249 249 251 252 253 253 253 253 254 254
272 274 275 275 274 272 271 273 278 282 286 285 280 275 270 268 269 270 270 268 267 267 267 266 265 264 264 264 264 264 264 266 267 267 266 264 261 258 256 255 253 251 250 249 247 245 244 245 246 247 247 248 248 248 250 252 251 250 247 245 247 250 252 251 249 248 247 246 246 247 248 249 250 251 251 251 251 252 253 254 254 255 255 255 255
270 271 272 272 272 272 273 275 278 282 285 285 280 276 272 269 266 267 269 268 267 268 268 266 265 264 263 262 262 263 263 263 264 265 266 265 264 263 260 258 256 254 252 251 250 249 247 246 246 246 247 247 248 248 249 249 249 249 248 244 241 243 247 250 252 252 251 249 249 248 249 250 250 250 251 251 252 253 253 254 255 256 257 257 256
268 269 271 271 271 272 273 276 279 282 283 282 279 275 273 270 266 265 266 268 268 268 268 266 265 263 262 262 262 261 262 262 262 263 264 264 264 264 263 262 260 258 255 254 252 251 250 249 248 247 247 248 248 248 248 248 247 247 247 246 243 240 240 243 247 250 252 252 252 251 252 252 252 252 252 252 252 253 254 254 256 257 258 258 258
266 268 270 271 272 272 274 276 278 279 278 277 275 273 271 269 266 264 264 266 268 268 267 266 264 263 262 262 261 261 261 262 262 262 263 263 262 262 262 262 261 260 258 256 254 252 251 250 250 249 249 248 248 248 247 247 247 247 247 247 246 244 242 241 242 244 247 250 251 252 252 253 254 255 255 254 254 255 255 255 256 258 258 258 258
266 267 268 271 272 273 275 276 276 276 274 272 270 268 267 266 265 263 263 265 269 269 267 265 264 262 261 260 261 262 262 261 261 262 262 262 262 261 260 260 260 260 259 258 257 256 254 252 251 250 250 250 249 249 248 247 246 247 247 247 247 246 245 244 243 243 245 246 248 250 251 251 252 253 254 255 256 256 257 257 257 257 257 256 256
268 267 268 269 270 272 274 275 275 274 273 271 268 266 265 265 265 264 265 268 270 270 267 264 263 262 260 260 260 261 263 262 261 260 260 260 261 261 261 260 260 259 260 259 259 258 257 255 254 253 252 251 250 251 250 249 248 248 248 248 248 247 247 246 246 246 246 247 248 249 250 251 251 251 251 252 253 255 256 257 258 257 256 255 254
269 269 269 268 268 269 270 270 271 271 272 272 271 268 267 266 266 267 268 270 270 269 266 264 262 262 261 260 260 261 262 263 262 261 260 259 259 260 260 261 260 260 260 259 259 258 258 257 256 255 254 253 252 251 252 251 251 250 249 248 248 248 248 247 247 247 247 247 248 249 250 251 251 251 251 251 251 252 253 254 255 256 256 255 254
273 272 272 271 269 267 267 266 267 267 268 270 271 271 271 270 270 270 270 270 270 268 266 264 262 262 262 261 262 262 262 262 262 261 260 260 259 259 259 260 260 260 260 260 259 259 259 258 257 256 255 254 254 253 252 252 252 252 251 250 249 248 248 248 247 248 248 248 248 248 249 251 251 252 252 252 252 252 251 252 253 254 255 256 256
273 273 272 271 270 269 269 268 268 267 268 268 270 272 273 272 271 270 269 268 268 268 267 265 263 262 261 261 261 261 262 262 262 261 260 259 259 259 259 259 259 259 259 259 259 259 259 258 258 257 256 255 254 254 253 253 253 253 253 252 251 250 249 249 248 248 248 248 248 249 249 250 251 251 252 252 252 252 252 252 252 253 254 255 256
269 269 269 269 268 268 267 266 268 271 273 273 272 270 269 270 270 271 270 269 268 267 266 266 265 264 262 261 260 260 260 260 261 261 261 260 258 258 258 258 258 257 257 257 257 257 258 257 257 257 257 257 256 255 255 254 254 253 253 253 253 252 251 250 250 250 249 248 248 249 249 250 250 251 251 251 252 252 252 252 253 253 254 254 255
266 266 265 266 266 265 266 267 270 274 277 278 277 273 268 267 269 272 273 271 269 268 268 266 265 265 264 264 262 261 261 261 261 261 261 260 260 259 259 259 258 257 256 256 256 257 257 257 256 256 256 257 256 256 256 256 255 254 254 254 254 254 253 252 251 251 251 250 250 250 249 249 250 251 251 251 251 252 252 253 253 253 253 253 254
263 264 263 265 266 266 268 270 271 273 274 276 277 276 274 272 272 274 274 272 271 272 273 271 268 266 265 264 264 264 263 263 263 263 262 261 261 260 260 260 259 259 258 257 256 256 256 256 256 256 256 256 256 255 256 256 256 256 255 255 255 255 255 255 254 253 251 251 252 253 252 250 249 250 251 251 251 252 252 253 253 254 254 254 254
259 262 263 264 263 263 264 266 267 268 270 272 274 275 275 276 276 277 277 275 273 273 275 275 273 271 268 266 265 264 263 263 263 263 262 262 262 261 261 260 260 260 260 259 258 257 256 256 256 256 256 256 256 255 255 255 256 256 256 256 256 256 256 256 256 255 254 252 251 253 254 254 252 251 251 251 251 251 252 253 253 254 254 254 254
254 257 260 261 261 261 261 261 263 265 267 269 272 273 273 274 276 278 278 277 276 274 274 275 275 274 273 270 268 266 265 264 263 262 262 261 261 262 262 262 261 260 260 260 259 258 257 257 257 257 257 256 256 256 255 255 255 255 256 256 256 256 257 257 257 257 256 255 253 252 254 255 254 253 253 253 252 252 252 252 253 253 254 254 255
249 250 253 256 257 258 257 258 259 260 263 266 268 269 270 272 274 275 276 276 275 274 274 274 273 274 275 274 273 270 268 266 265 264 263 261 261 261 261 262 262 261 260 259 259 259 258 258 258 258 258 257 256 256 256 256 255 255 256 256 256 256 257 258 258 258 258 257 255 254 254 255 255 254 254 255 254 253 253 253 253 253 254 254 255
249 249 249 251 253 255 256 257 258 260 262 265 266 268 269 270 272 272 273 273 273 273 273 272 272 272 272 273 274 273 272 271 269 267 265 264 262 261 260 260 260 260 260 260 260 259 259 258 258 258 258 258 257 257 257 257 257 256 256 257 257 257 257 258 258 259 259 259 258 256 255 255 255 254 254 255 256 255 254 254 254 254 254 255 255
249 250 250 250 252 254 256 258 261 263 265 266 267 267 268 269 269 270 271 271 271 272 272 271 271 271 270 271 271 272 272 272 272 271 269 268 265 263 261 260 260 259 259 259 259 259 259 259 258 258 258 259 259 259 259 258 258 257 257 257 257 258 258 258 258 258 259 259 259 258 257 257 257 256 255 254 255 255 255 255 255 255 255 255 256
249 250 250 251 253 255 258 260 262 263 264 265 266 266 266 267 268 269 269 270 270 271 271 270 270 270 270 270 270 270 270 270 271 271 270 270 269 267 265 263 262 260 259 259 258 257 257 257 257 258 258 259 259 259 259 259 259 258 258 258 257 257 258 258 258 258 259 258 258 257 257 257 258 258 257 256 255 255 255 255 255 255 256 256 256
251 251 252 253 255 257 259 261 261 262 263 264 265 265 266 266 268 269 270 270 271 271 271 271 271 270 270 270 269 269 269 269 269 269 269 269 269 268 268 266 265 263 262 260 259 257 256 256 256 257 257 258 258 258 258 258 259 259 259 258 258 258 258 257 257 257 258 259 259 258 256 256 256 257 258 258 258 257 256 255 255 254 255 255 256
254 254 254 255 256 257 259 260 261 262 263 264 264 265 266 268 269 270 271 272 273 273 273 273 273 273 272 271 271 270 269 269 268 268 267 267 267 267 267 267 267 266 265 263 262 261 260 258 257 257 256 256 256 256 257 258 259 259 259 259 258 258 258 257 257 256 256 258 259 259 258 257 256 256 256 257 258 258 258 258 257 256 255 255 255
Height
10684 10683 10683 10683 10684 10684 10684 10684 10684 10684 10684 10684 10684 10684 10684 10685 10686 10688 10689 10689 10691 10693 10695 10698 10699 10698 10697 10695 10696 10697 10698 10699 10699 10700 10701 10702 10704 10705 10705 10706 10705 10704 10703 10702 10702 10702 10703 10703 10704 10706 10708 10709 10711 10713 10714 10716 10718 10720 10722 10724 10726 10728 10729 10731 10732 10733 10734 10736 10738 10740 10741 10742 10743 10744 10745 10746 10746 10747 10748 10748 10749 10750 10751 10751 10752
10677 10677 10677 10677 10677 10677 10677 10677 10676 10676 10677 10677 10678 10678 10679 10680 10681 10682 10684 10684 10685 10687 10689 10692 10693 10694 10693 10692 10691 10692 10694 10695 10695 10696 10696 10697 10698 10699 10700 10700 10700 10700 10699 10698 10698 10698 10698 10699 10699 10701 10703 10705 10707 10709 10711 10712 10714 10716 10719 10721 10723 10725 10727 10728 10729 10730 10731 10733 10734 10736 10737 10739 10740 10741 10742 10743 10744 10745 10746 10746 10747 10748 10748 10749 10750
10670 10671 10670 10669 10669 10669 10669 10669 10668 10669 10669 10670 10671 10672 10673 10674 10676 10677 10678 10679 10680 10681 10683 10686 10688 10688 10688 10688 10688 10688 10689 10690 10691 10691 10691 10692 10693 10694 10695 10695 10695 10695 10695 10694 10694 10693 10694 10694 10695 10697 10699 10701 10703 10705 10707 10709 10711 10713 10715 10717 10719 10721 10723 10725 10727 10728 10729 10730 10731 10733 10734 10735 10737 10738 10739 10740 10741 10742 10743 10744 10745 10745 10746 10747 10747
10663 10663 10662 10661 10662 10662 10662 10660 10660 10661 10662 10662 10664 10665 10667 10668 10670 10672 10673 10674 10675 10676 10678 10680 10682 10683 10683 10684 10684 10684 10684 10685 10686 10686 10687 10687 10688 10689 10690 10691 10691 10691 10691 10690 10690 10689 10689 10690 10691 10693 10695 10697 10700 10702 10704 10706 10708 10710 10712 10714 10716 10718 10720 10722 10723 10725 10726 10728 10729 10730 10730 10732 10733 10735 10736 10737 10738 10739 10740 10741 10742 10743 10744 10744 10745
10655 10656 10655 10654 10654 10655 10655 10654 10653 10654 10655 10655 10656 10658 10660 10662 10665 10666 10668 10669 10670 10672 10673 10675 10677 10678 10678 10679 10680 10680 10679 10680 10680 10681 10682 10682 10683 10684 10685 10686 10687 10687 10686 10686 10686 10685 10685 10686 10687 10689 10691 10694 10696 10699 10701 10703 10705 10707 10709 10711 10713 10714 10716 10718 10720 10722 10723 10725 10726 10727 10727 10728 10730 10731 10733 10734 10735 10736 10737 10739 10740 10741 10742 10742 10743
10648 10649 10648 10647 10647 10648 10649 10648 10647 10647 10648 10649 10650 10651 10653 10656 10659 10660 10662 10664 10665 10667 10668 10670 10672 10673 10673 10673 10674 10675 10675 10675 10675 10676 10677 10677 10678 10680 10680 10681 10682 10682 10682 10682 10681 10682 10682 10682 10683 10685 10687 10689 10692 10695 10697 10700 10702 10704 10706 10708 10710 10711 10713 10715 10717 10719 10720 10721 10722 10723 10724 10725 10726 10728 10729 10731 10732 10733 10735 10736 10737 10738 10739 10740 10741
10643 10643 10643 10642 10642 10642 10642 10642 10642 10641 10642 10643 10644 10645 10647 10649 10652 10655 10657 10658 10659 10661 10663 10664 10666 10668 10668 10668 10669 10669 10670 10670 10671 10672 10673 10673 10673 10675 10675 10677 10678 10677 10677 10677 10677 10677 10678 10678 10679 10681 10682 10684 10687 10690 10693 10696 10698 10701 10703 10705 10707 10709 10711 10712 10714 10716 10717 10718 10719 10720 10722 10723 10724 10725 10727 10728 10729 10730 10732 10733 10735 10736 10736 10737 10738
10639 10639 10638 10638 10637 10637 10637 10637 10637 10637 10637 10637 10638 10639 10640 10643 10646 10649 10651 10653 10654 10656 10657 10659 10661 10663 10664 10664 10664 10664 10665 10665 10666 10667 10668 10668 10669 10670 10671 10672 10673 10673 10673 10673 10673 10673 10674 10674 10675 10677 10679 10680 10683 10686 10690 10693 10696 10698 10700 10701 10704 10706 10708 10710 10712 10713 10714 10715 10716 10717 10719 10720 10721 10722 10724 10725 10726 10727 10729 10730 10732 10733 10733 10734 10735
10636 10635 10634 10633 10633 10632 10632 10633 10633 10634 10634 10634 10634 10634 10635 10637 10639 10642 10645 10648 10650 10651 10653 10654 10656 10658 10660 10660 10659 10660 10660 10660 10661 10662 10663 10664 10664 10665 10666 10668 10669 10669 10669 10669 10669 10669 10670 10671 10671 10673 10675 10677 10680 10682 10685 10688 10691 10694 10696 10697 10700 10702 10705 10707 10709 10710 10711 10713 10714 10715 10716 10717 10718 10720 10721 10722 10723 10725 10726 10727 10728 10729 10730 10731 10732
10632 10631 10630 10629 10629 10629 10628 10628 10628 10629 10630 10630 10631 10632 10632 10633 10634 10637 10640 10643 10645 10647 10648 10649 10651 10653 10655 10654 10653 10655 10656 10655 10656 10656 10657 10659 10660 10661 10662 10664 10664 10664 10665 10665 10665 10665 10666 10667 10668 10670 10672 10674 10676 10678 10680 10682 10684 10688 10691 10693 10696 10698 10701 10703 10705 10707 10708 10710 10711 10712 10713 10715 10716 10718 10719 10720 10721 10722 10723 10724 10725 10726 10727 10728 10729
10627 10627 10627 10626 10625 10625 10625 10625 10625 10625 10626 10626 10627 10628 10629 10630 10631 10632 10635 10638 10640 10641 10642 10645 10647 10648 10649 10649 10648 10649 10651 10652 10652 10651 10652 10655 10656 10657 10658 10659 10660 10660 10660 10661 10662 10662 10663 10664 10665 10667 10669 10671 10673 10675 10677 10678 10680 10682 10685 10688 10691 10694 10697 10700 10702 10704 10705 10707 10708 10710 10711 10713 10714 10716 10717 10717 10718 10718 10719 10720 10721 10722 10723 10724 10725
10623 10623 10624 10623 10622 10622 10622 10622 10622 10622 10622 10623 10623 10624 10624 10625 10626 10628 10630 10632 10635 10636 10637 10640 10642 10643 10644 10644 10643 10644 10646 10648 10648 10647 10649 10651 10652 10654 10655 10655 10656 10656 10657 10658 10659 10659 10660 10661 10663 10665 10667 10669 10671 10673 10675 10677 10678 10680 10681 10684 10687 10690 10694 10696 10699 10700 10702 10703 10705 10707 10709 10711 10712 10713 10714 10714 10714 10714 10715 10716 10716 10717 10718 10720 10721
10621 10620 10621 10620 10619 10619 10618 10618 10618 10618 10618 10619 10619 10620 10620 10620 10621 10622 10624 10626 10628 10630 10632 10634 10636 10638 10639 10638 10638 10638 10641 10643 10643 10644 10645 10647 10648 10650 10651 10652 10652 10653 10653 10654 10656 10656 10658 10659 10661 10663 10665 10667 10668 10670 10672 10673 10676 10678 10680 10682 10684 10687 10690 10693 10695 10696 10698 10700 10702 10704 10706 10708 10709 10709 10709 10709 10710 10710 10710 10711 10712 10713 10714 10715 10717
10619 10618 10618 10618 10617 10617 10616 10615 10614 10613 10613 10614 10614 10615 10616 10616 10616 10617 10618 10620 10621 10623 10625 10627 10630 10632 10633 10633 10632 10633 10635 10638 10639 10640 10641 10643 10644 10646 10647 10648 10649 10649 10650 10651 10653 10654 10655 10657 10659 10662 10663 10664 10666 10667 10669 10670 10672 10675 10678 10680 10682 10684 10687 10689 10691 10693 10694 10696 10698 10700 10702 10704 10705 10705 10705 10705 10705 10706 10706 10707 10708 10709 10710 10711 10712
10617 10616 10616 10615 10615 10614 10613 10611 10610 10609 10609 10609 10609 10610 10610 10611 10611 10611 10612 10614 10615 10616 10618 10621 10625 10627 10627 10628 10628 10628 10629 10632 10634 10635 10637 10639 10640 10641 10643 10644 10645 10645 10647 10648 10649 10651 10652 10654 10656 10658 10660 10661 10662 10663 10665 10667 10669 10672 10675 10677 10680 10682 10684 10686 10688 10690 10692 10694 10695 10697 10699 10700 10701 10701 10701 10701 10701 10702 10702 10703 10704 10705 10706 10707 10707
10614 10613 10612 10611 10611 10610 10609 10608 10606 10606 10605 10605 10605 10605 10606 10607 10607 10607 10608 10609 10609 10611 10613 10616 10620 10621 10620 10622 10624 10624 10624 10626 10629 10630 10632 10635 10636 10638 10639 10640 10640 10641 10643 10645 10646 10648 10649 10650 10652 10653 10654 10655 10656 10658 10661 10663 10665 10668 10671 10674 10677 10680 10682 10684 10685 10687 10690 10691 10693 10694 10695 10697 10698 10698 10697 10697 10697 10698 10698 10699 10700 10700 10701 10702 10703
10608 10608 10607 10607 10606 10606 10605 10605 10604 10603 10602 10602 10602 10602 10603 10603 10604 10604 10604 10604 10605 10606 10608 10611 10615 10615 10614 10616 10619 10620 10620 10620 10623 10626 10628 10630 10632 10634 10635 10636 10637 10637 10639 10641 10643 10645 10646 10647 10648 10648 10649 10650 10651 10654 10657 10659 10661 10664 10667 10670 10673 10676 10679 10680 10682 10684 10686 10688 10690 10691 10692 10693 10694 10694 10694 10694 10694 10694 10695 10695 10695 10696 10696 10697 10698
10604 10604 10603 10603 10602 10602 10602 10601 10601 10600 10599 10599 10599 10598 10599 10599 10600 10600 10600 10601 10601 10602 10603 10606 10609 10610 10610 10611 10613 10616 10617 10617 10619 10621 10623 10625 10627 10629 10631 10633 10634 10634 10635 10637 10640 10642 10642 10643 10643 10644 10645 10646 10648 10651 10653 10655 10658 10661 10664 10667 10669 10672 10674 10676 10678 10680 10682 10684 10686 10687 10688 10688 10689 10690 10691 10691 10691 10691 10692 10692 10692 10692 10692 10693 10694
10602 10602 10601 10601 10600 10600 10599 10599 10598 10597 10597 10596 10596 10595 10595 10595 10596 10596 10597 10597 10598 10599 10600 10601 10603 10605 10605 10606 10608 10611 10613 10615 10615 10616 10617 10620 10622 10624 10627 10629 10630 10630 10632 10634 10636 10637 10637 10638 10639 10640 10642 10644 10645 10647 10649 10652 10654 10657 10661 10664 10666 10667 10669 10671 10673 10676 10678 10680 10681 10682 10683 10684 10684 10686 10688 10688 10689 10689 10689 10689 10689 10689 10689 10689 10690
10600 10600 10600 10599 10598 10598 10597 10597 10596 10595 10595 10594 10593 10593 10592 10592 10592 10593 10593 10594 10595 10596 10597 10597 10598 10599 10600 10602 10604 10606 10609 10611 10612 10613 10613 10615 10617 10620 10622 10625 10626 10627 10629 10631 10632 10632 10632 10633 10635 10637 10639 10641 10642 10644 10645 10648 10651 10653 10657 10660 10660 10661 10663 10665 10667 10671 10673 10675 10675 10677 10678 10678 10679 10681 10682 10684 10686 10687 10687 10687 10686 10685 10685 10686 10686
10597 10597 10597 10596 10596 10595 10595 10595 10594 10594 10593 10592 10591 10591 10590 10589 10589 10590 10590 10591 10592 10592 10593 10594 10595 10595 10596 10598 10599 10601 10604 10606 10608 10610 10611 10611 10612 10614 10618 10620 10622 10624 10625 10627 10627 10627 10627 10630 10632 10634 10635 10637 10638 10640 10642 10644 10646 10649 10654 10655 10654 10655 10657 10659 10662 10666 10667 10668 10669 10671 10672 10672 10674 10676 10677 10679 10682 10683 10683 10683 10682 10681 10682 10682 10683
10592 10592 10592 10592 10592 10592 10592 10591 10591 10591 10591 10590 10589 10588 10588 10587 10587 10587 10587 10588 10589 10590 10590 10591 10592 10592 10593 10594 10595 10597 10599 10601 10603 10606 10607 10608 10608 10609 10613 10616 10618 10620 10621 10622 10623 10623 10625 10627 10628 10630 10631 10633 10635 10636 10638 10640 10642 10646 10649 10649 10650 10652 10654 10656 10658 10659 10660 10662 10663 10663 10663 10665 10669 10673 10675 10675 10676 10677 10677 10678 10677 10677 10678 10679 10681
10587 10587 10587 10588 10588 10588 10588 10587 10587 10587 10587 10587 10587 10586 10586 10585 10585 10585 10585 10586 10586 10587 10588 10588 10589 10589 10589 10590 10591 10593 10594 10596 10598 10600 10602 10604 10605 10606 10608 10611 10613 10615 10616 10617 10617 10619 10622 10624 10625 10626 10628 10630 10631 10633 10635 10637 10639 10641 10643 10644 10646 10648 10649 10651 10650 10650 10652 10654 10655 10654 10656 10663 10668 10671 10672 10670 10670 10671 10672 10673 10673 10673 10675 10676 10677
10582 10582 10582 10582 10583 10583 10583 10583 10583 10583 10583 10583 10583 10583 10583 10583 10582 10582 10582 10583 10583 10584 10585 10585 10586 10586 10587 10587 10588 10589 10590 10591 10593 10595 10597 10599 10601 10602 10603 10605 10608 10609 10611 10612 10613 10614 10617 10620 10622 10623 10625 10626 10627 10628 10630 10633 10635 10637 10638 10639 10640 10642 10643 10644 10642 10644 10648 10650 10651 10653 10657 10663 10664 10663 10664 10664 10665 10668 10668 10669 10669 10670 10672 10672 10672
10576 10576 10576 10576 10577 10577 10578 10578 10578 10578 10578 10578 10578 10579 10579 10579 10579 10579 10579 10580 10580 10581 10581 10582 10583 10583 10583 10584 10584 10585 10585 10586 10587 10589 10591 10593 10596 10598 10599 10601 10603 10604 10606 10608 10609 10610 10613 10615 10617 10619 10621 10622 10623 10624 10626 10628 10630 10632 10633 10634 10635 10636 10638 10638 10638 10640 10644 10646 10649 10652 10655 10658 10656 10655 10659 10660 10662 10664 10663 10663 10665 10666 10668 10668 10667
10569 10570 10570 10571 10571 10572 10573 10573 10573 10574 10574 10574 10574 10574 10575 10575 10575 10576 10576 10576 10577 10578 10578 10579 10579 10580 10580 10580 10581 10581 10581 10582 10583 10584 10586 10588 10590 10592 10594 10596 10598 10599 10601 10603 10605 10606 10608 10610 10612 10614 10616 10618 10619 10619 10621 10623 10625 10627 10629 10629 10629 10630 10631 10633 10634 10636 10638 10640 10643 10645 10648 10651 10650 10651 10655 10657 10658 10660 10660 10660 10662 10663 10663 10663 10662
10564 10564 10565 10566 10566 10567 10567 10568 10568 10569 10569 10569 10570 10570 10571 10571 10572 10572 10573 10573 10573 10574 10575 10575 10575 10576 10577 10577 10577 10578 10578 10579 10580 10580 10581 10583 10585 10587 10589 10591 10593 10594 10596 10598 10600 10602 10604 10605 10607 10609 10611 10613 10614 10615 10616 10618 10620 10621 10623 10623 10624 10624 10626 10628 10630 10631 10633 10635 10637 10638 10641 10644 10646 10647 10650 10652 10654 10656 10656 10656 10657 10658 10659 10659 10659
10559 10559 10560 10561 10562 10562 10563 10563 10563 10563 10564 10565 10565 10566 10566 10566 10567 10568 10569 10569 10570 10570 10571 10571 10571 10572 10572 10573 10574 10574 10575 10575 10576 10577 10578 10578 10580 10581 10583 10585 10587 10589 10591 10592 10594 10597 10598 10600 10602 10604 10606 10608 10609 10610 10611 10613 10614 10615 10617 10618 10618 10620 10621 10623 10625 10627 10628 10630 10632 10634 10636 10638 10641 10643 10644 10646 10648 10650 10651 10651 10652 10653 10653 10654 10655
10554 10554 10555 10556 10557 10558 10558 10558 10558 10558 10559 10559 10560 10560 10560 10561 10561 10562 10563 10564 10565 10566 10566 10566 10567 10568 10568 10569 10569 10570 10571 10572 10572 10573 10574 10575 10576 10577 10578 10580 10582 10584 10586 10587 10589 10591 10592 10594 10596 10598 10600 10603 10604 10605 10606 10607 10608 10609 10611 10612 10613 10614 10616 10618 10620 10621 10623 10624 10627 10629 10630 10632 10635 10637 10639 10640 10642 10643 10645 10645 10646 10647 10647 10648 10649
10549 10549 10550 10551 10552 10552 10552 10552 10552 10553 10554 10554 10554 10554 10555 10555 10555 10556 10557 10558 10559 10560 10561 10561 10562 10563 10563 10564 10565 10565 10566 10567 10568 10569 10570 10570 10571 10572 10573 10575 10576 10578 10580 10582 10583 10585 10587 10588 10590 10592 10594 10597 10598 10600 10601 10602 10603 10604 10605 10606 10608 10609 10610 10612 10614 10616 10617 10619 10621 10623 10624 10626 10628 10630 10632 10634 10635 10637 10638 10638 10639 10640 10641 10642 10643
10543 10544 10545 10545 10546 10546 10546 10545 10545 10546 10547 10548 10548 10548 10548 10549 10550 10550 10551 10552 10553 10554 10555 10556 10557 10557 10558 10559 10560 10561 10561 10562 10562 10563 10564 10565 10566 10567 10568 10569 10570 10572 10573 10575 10577 10579 10581 10582 10584 10586 10588 10590 10592 10594 10595 10596 10597 10599 10601 10601 10602 10603 10605 10606 10608 10610 10612 10613 10615 10617 10618 10620 10621 10623 10625 10627 10629 10630 10631 10632 10632 10633 10634 10635 10636
10538 10539 10539 10539 10539 10539 10539 10539 10539 10539 10540 10541 10541 10542 10542 10543 10544 10545 10546 10546 10547 10548 10549 10550 10551 10552 10552 10553 10554 10556 10557 10557 10558 10558 10559 10560 10561 10561 10562 10563 10565 10566 10567 10569 10570 10572 10574 10575 10577 10579 10581 10583 10585 10587 10589 10590 10591 10593 10595 10596 10597 10598 10599 10600 10602 10604 10606 10608 10609 10611 10612 10613 10615 10617 10618 10620 10622 10624 10625 10626 10626 10627 10627 10628 10630
10532 10533 10533 10532 10532 10532 10533 10533 10533 10533 10533 10534 10534 10535 10536 10537 10538 10539 10539 10541 10542 10543 10544 10544 10545 10546 10546 10547 10548 10550 10551 10552 10553 10553 10554 10555 10556 10556 10557 10558 10559 10560 10561 10563 10564 10565 10567 10569 10570 10572 10574 10576 10577 10579 10581 10583 10585 10586 10588 10590 10592 10593 10593 10594 10596 10597 10599 10601 10602 10604 10605 10606 10608 10610 10612 10613 10615 10617 10618 10619 10620 10621 10622 10622 10623
10527 10526 10526 10526 10525 10526 10526 10527 10526 10526 10526 10527 10528 10529 10529 10530 10531 10532 10533 10534 10536 10537 10538 10538 10538 10539 10540 10541 10542 10543 10545 10546 10547 10548 10549 10550 10551 10552 10552 10553 10554 10555 10556 10557 10558 10559 10561 10562 10564 10565 10568 10569 10570 10571 10573 10575 10577 10579 10581 10582 10584 10586 10588 10589 10590 10591 10592 10593 10594 10596 10597 10598 10600 10602 10604 10606 10607 10609 10610 10612 10614 10615 10615 10616 10616
10522 10521 10519 10519 10518 10519 10520 10520 10521 10520 10520 10520 10521 10521 10522 10522 10523 10524 10526 10527 10529 10530 10531 10531 10532 10533 10533 10534 10536 10537 10539 10540 10541 10542 10544 10545 10546 10546 10547 10547 10548 10548 10550 10551 10552 10553 10554 10556 10557 10558 10560 10562 10563 10564 10565 10567 10569 10571 10573 10575 10576 10578 10580 10582 10584 10585 10585 10586 10587 10588 10590 10591 10593 10594 10596 10598 10599 10601 10602 10604 10606 10608 10609 10609 10609
10515 10514 10513 10513 10512 10512 10513 10513 10513 10513 10513 10514 10514 10514 10514 10515 10516 10517 10519 10521 10521 10523 10523 10524 10525 10526 10527 10528 10529 10531 10533 10534 10535 10535 10536 10538 10539 10540 10541 10541 10542 10543 10544 10545 10546 10547 10549 10549 10551 10552 10553 10555 10556 10556 10557 10559 10561 10563 10565 10567 10568 10570 10572 10574 10576 10577 10578 10579 10580 10581 10583 10585 10586 10587 10588 10590 10591 10592 10594 10596 10598 10600 10601 10601 10601
10506 10505 10506 10508 10508 10507 10506 10505 10505 10504 10505 10506 10507 10507 10507 10509 10510 10511 10512 10513 10514 10515 10515 10516 10517 10518 10520 10521 10523 10525 10526 10527 10528 10528 10529 10531 10532 10533 10534 10535 10536 10537 10538 10539 10540 10541 10542 10543 10544 10545 10546 10547 10548 10548 10549 10550 10552 10554 10556 10558 10560 10561 10563 10566 10567 10569 10570 10571 10572 10574 10575 10577 10579 10580 10581 10582 10583 10585 10585 10587 10588 10590 10592 10592 10593
10496 10496 10497 10500 10501 10500 10500 10499 10497 10496 10496 10498 10498 10499 10500 10502 10503 10504 10505 10505 10506 10506 10507 10508 10509 10510 10512 10514 10515 10517 10519 10520 10520 10521 10522 10524 10525 10526 10527 10527 10529 10530 10531 10532 10533 10534 10536 10537 10538 10539 10539 10540 10541 10541 10541 10542 10544 10546 10547 10549 10551 10553 10555 10557 10559 10559 10561 10563 10564 10566 10567 10569 10570 10572 10573 10575 10576 10577 10578 10579 10580 10581 10582 10583 10584
10487 10487 10487 10488 10490 10490 10491 10491 10490 10489 10489 10490 10491 10492 10493 10495 10496 10497 10497 10498 10498 10498 10499 10501 10502 10502 10503 10505 10507 10509 10510 10511 10512 10513 10515 10516 10517 10518 10519 10520 10521 10523 10524 10525 10526 10527 10528 10529 10530 10531 10532 10532 10533 10533 10534 10535 10536 10537 10538 10540 10542 10544 10545 10547 10549 10550 10551 10553 10555 10557 10559 10560 10561 10563 10565 10567 10568 10570 10571 10572 10573 10573 10574 10574 10575
10480 10479 10479 10479 10479 10480 10482 10482 10481 10481 10482 10484 10486 10487 10488 10489 10489 10489 10490 10490 10490 10491 10491 10492 10493 10494 10495 10497 10499 10500 10501 10502 10503 10504 10506 10507 10509 10510 10511 10512 10513 10514 10516 10517 10518 10519 10520 10520 10521 10522 10523 10524 10525 10525 10527 10528 10528 10528 10529 10531 10532 10535 10536 10537 10539 10541 10542 10544 10546 10547 10549 10551 10552 10553 10555 10557 10559 10561 10562 10563 10565 10565 10566 10566 10566
10474 10474 10473 10472 10472 10473 10475 10474 10471 10471 10474 10477 10480 10482 10483 10484 10483 10483 10483 10484 10484 10484 10484 10484 10485 10486 10487 10488 10490 10491 10492 10494 10495 10496 10497 10498 10500 10501 10502 10502 10503 10504 10506 10508 10509 10510 10511 10512 10512 10512 10514 10516 10517 10518 10518 10519 10520 10520 10521 10522 10523 10524 10527 10528 10529 10531 10533 10535 10537 10537 10539 10541 10542 10543 10545 10547 10549 10551 10553 10554 10556 10556 10557 10558 10558
10469 10470 10468 10467 10466 10466 10467 10467 10465 10465 10466 10468 10470 10473 10475 10477 10478 10478 10477 10477 10478 10478 10478 10479 10479 10480 10480 10480 10481 10482 10484 10485 10487 10488 10489 10490 10492 10493 10493 10493 10493 10495 10497 10499 10500 10501 10502 10502 10502 10503 10505 10506 10508 10509 10509 10510 10511 10511 10512 10513 10514 10514 10516 10518 10519 10521 10523 10525 10527 10527 10528 10532 10533 10533 10534 10537 10539 10541 10543 10545 10546 10547 10547 10548 10549
10464 10464 10463 10462 10461 10460 10461 10461 10460 10459 10459 10460 10462 10464 10467 10469 10470 10470 10471 10471 10471 10471 10471 10472 10473 10473 10473 10473 10474 10475 10476 10476 10478 10479 10480 10481 10483 10484 10484 10483 10484 10485 10488 10490 10491 10492 10492 10492 10492 10493 10495 10496 10496 10498 10500 10500 10501 10502 10504 10505 10505 10506 10507 10507 10508 10510 10513 10517 10518 10516 10516 10520 10524 10524 10523 10525 10528 10531 10533 10535 10535 10536 10537 10538 10539
10459 10458 10458 10458 10457 10456 10456 10456 10455 10454 10453 10454 10456 10457 10459 10461 10462 10462 10463 10463 10464 10465 10464 10464 10464 10464 10465 10467 10467 10467 10467 10468 10469 10469 10469 10471 10473 10473 10474 10474 10474 10476 10479 10480 10481 10481 10481 10481 10482 10483 10485 10485 10484 10486 10489 10490 10491 10492 10494 10495 10496 10497 10497 10498 10499 10499 10500 10506 10510 10508 10505 10507 10513 10515 10513 10513 10518 10521 10523 10524 10525 10525 10526 10527 10529
10453 10453 10452 10452 10452 10451 10451 10450 10449 10449 10448 10448 10450 10451 10452 10453 10454 10455 10456 10456 10457 10457 10457 10457 10456 10455 10456 10457 10458 10458 10459 10460 10460 10459 10460 10462 10463 10463 10463 10463 10464 10466 10468 10469 10469 10470 10471 10472 10472 10472 10473 10473 10473 10474 10477 10480 10481 10481 10483 10485 10486 10488 10488 10488 10489 10488 10487 10493 10500 10502 10498 10494 10499 10505 10504 10502 10507 10511 10512 10513 10514 10514 10515 10516 10518
10446 10446 10445 10445 10444 10444 10444 10444 10443 10443 10443 10443 10444 10445 10446 10447 10447 10448 10448 10449 10449 10449 10450 10449 10449 10447 10447 10447 10447 10448 10450 10451 10450 10450 10452 10453 10455 10455 10454 10453 10453 10455 10457 10457 10458 10459 10460 10461 10461 10460 10459 10460 10462 10463 10465 10468 10471 10472 10473 10474 10475 10477 10479 10479 10479 10477 10476 10480 10486 10491 10491 10484 10485 10494 10496 10492 10495 10499 10500 10501 10502 10502 10503 10505 10507
10439 10439 10438 10437 10436 10436 10436 10436 10436 10437 10437 10437 10437 10438 10439 10439 10440 10440 10441 10442 10442 10442 10442 10441 10441 10440 10439 10438 10437 10437 10438 10439 10439 10440 10441 10443 10445 10445 10445 10444 10444 10444 10446 10447 10447 10447 10448 10448 10448 10447 10446 10448 10450 10453 10454 10456 10459 10462 10463 10464 10464 10466 10468 10469 10468 10466 10466 10468 10471 10477 10480 10474 10472 10482 10487 10483 10483 10486 10488 10490 10491 10491 10492 10494 10495
10432 10431 10430 10429 10428 10428 10428 10429 10429 10429 10429 10429 10429 10430 10430 10431 10431 10432 10433 10434 10434 10434 10434 10433 10432 10431 10430 10429 10429 10428 10428 10428 10428 10428 10429 10430 10432 10432 10433 10433 10433 10434 10436 10436 10436 10436 10436 10435 10435 10434 10435 10437 10440 10442 10443 10444 10446 10448 10450 10452 10452 10454 10457 10458 10457 10455 10455 10456 10457 10461 10467 10464 10461 10468 10474 10473 10472 10474 10476 10478 10479 10480 10481 10483 10484
10423 10423 10422 10421 10421 10420 10421 10421 10421 10421 10421 10421 10421 10421 10422 10422 10422 10423 10424 10425 10425 10425 10424 10424 10423 10422 10421 10420 10420 10419 10418 10418 10417 10417 10417 10417 10418 10419 10419 10421 10421 10422 10424 10425 10425 10424 10423 10423 10422 10423 10426 10428 10429 10429 10430 10430 10431 10433 10436 10439 10440 10441 10444 10445 10445 10443 10442 10442 10443 10446 10452 10454 10451 10454 10459 10459 10459 10461 10462 10464 10467 10469 10470 10470 10472
10414 10415 10414 10414 10413 10413 10413 10413 10413 10412 10412 10412 10412 10412 10413 10413 10413 10414 10414 10415 10415 10415 10414 10414 10413 10413 10412 10411 10410 10409 10408 10408 10407 10406 10406 10406 10406 10406 10406 10407 10408 10409 10410 10411 10412 10411 10411 10411 10413 10415 10416 10417 10416 10416 10416 10417 10418 10420 10422 10425 10426 10428 10430 10431 10432 10432 10430 10428 10427 10429 10437 10442 10442 10443 10445 10444 10444 10447 10448 10450 10454 10458 10458 10458 10459
10405 10406 10406 10406 10405 10405 10404 10404 10403 10403 10403 10403 10403 10403 10404 10404 10404 10404 10404 10404 10403 10403 10403 10403 10402 10402 10402 10401 10400 10399 10398 10397 10396 10395 10395 10394 10393 10393 10393 10394 10395 10395 10396 10397 10398 10399 10400 10401 10403 10404 10405 10404 10404 10404 10404 10405 10406 10407 10409 10411 10413 10415 10416 10417 10418 10420 10420 10416 10412 10412 10420 10426 10428 10431 10432 10431 10431 10431 10432 10434 10439 10442 10445 10446 10447